Flag for Switzerland Weather past 2 weeks in Yverdon-les-Bains, Vaud, Switzerland

Now
74 °F

Mild.


Feels Like: 77 °F
Forecast: 53 / 78 °F
Wind: 2 mph from Northwest

Location: Payerne

Current Time: Sep 17, 2014 at 5:50:54 PM

Latest Report: Sep 17, 2014 at 5:00 PM


Visibility: N/A

Pressure: 29.80 "Hg

Humidity: 58%

Dew point: 58 °F

Location of Yverdon-les-BainsLocation

Historic Weather in Yverdon-les-Bains — Graph

°F

Yverdon-les-Bains temperature yesterday

Maximum temperature yesterday: 74 °F (at 5:00 PM)
Minimum temperature yesterday: 53 °F (at 7:00 AM)
Average temperature yesterday: 62 °F

Past Weeks' High & Low Weather Summary

 TemperatureHumidityPressure
High78 °F (Sep 7, 6:00 PM)99% (Sep 4, 2:00 AM)30.13 "Hg (Sep 4, 2:00 AM)
Low46 °F (Sep 12, 7:00 AM)41% (Sep 2, 5:00 PM)29.80 "Hg (Sep 17, 4:00 PM)
Average61 °F81%29.98 "Hg
* Reported Sep 2 4:00 PM — Sep 17 4:00 PM, Yverdon-les-Bains, Weather by CustomWeather, © 2014

Note: Actual official high and low records may vary slightly from our data, if they occured in-between our weather recording intervals... More about our weather records

Advertising

Yverdon-les-Bains weather history for previous 24 hours

 ConditionsComfort  
Time TempWeatherWind HumidityBarometerVisibility
4:00 PM
Sep 17
72 °FMild.3 mph62%29.80 "HgN/A
3:00 PM73 °FMild.3 mph57%29.80 "HgN/A
2:00 PM73 °FPartly sunny.3 mph58%29.83 "Hg12 mi
1:00 PM69 °FMild.5 mph68%29.85 "HgN/A
12:00 PM66 °FMild.2 mph72%29.88 "HgN/A
11:00 AM65 °FFog.2 mph76%29.89 "Hg4 mi
10:00 AM61 °FCool.3 mph86%29.91 "HgN/A
9:00 AM56 °FCool.1 mph94%29.92 "HgN/A
8:00 AM54 °FFog.1 mph97%29.93 "Hg2 mi
7:00 AM54 °FCool.1 mph98%29.93 "HgN/A
6:00 AM54 °FCool.1 mph97%29.93 "HgN/A
5:00 AM54 °FCool.2 mph97%29.94 "HgN/A
4:00 AM55 °FCool.2 mph95%29.94 "HgN/A
3:00 AM55 °FCool.3 mph95%29.93 "HgN/A
2:00 AM55 °FPassing clouds.2 mph95%29.94 "Hg10 mi
1:00 AM56 °FCool.1 mph94%29.93 "HgN/A
12:00 AM56 °FCool.2 mph93%29.93 "HgN/A
11:00 PM
Sep 16
58 °FPassing clouds.1 mph88%29.93 "Hg11 mi
10:00 PM59 °FCool.1 mph84%29.93 "HgN/A
9:00 PM60 °FCool.1 mph85%29.92 "HgN/A
8:00 PM64 °FPassing clouds.No wind78%29.89 "Hg11 mi
7:00 PM72 °FMild.3 mph56%29.87 "HgN/A
6:00 PM72 °FMild.3 mph59%29.87 "HgN/A
5:00 PM74 °FMild.2 mph47%29.86 "HgN/A
Weather by CustomWeather, © 2014

See weather overviewHow to use our weather pages